Regional Weather Roundup
Issued by NWS Green Bay, WI

Home | Current Version | Previous Version | Text Only | Print | Product List | Glossary On
Versions: 1 2 3 4 5 6 7 8 9 10 11 12 13 14 15 16 17 18 19 20 21 22 23 24 25 26 27 28 29 30 31 32 33 34 35 36 37 38 39 40 41 42 43 44 45 46 47 48 49 50
000
ASUS43 KGRB 291500
RWRGRB

NORTH-CENTRAL AND NORTHEAST WISCONSIN REGIONAL WEATHER ROUNDUP
NATIONAL WEATHER SERVICE GREEN BAY WI
1000 AM CDT SAT AUG 29 2015

WIZ005-009-010>012-018-019-291600-
NORTH CENTRAL WISCONSIN

CITY           SKY/WX    TMP DP  RH WIND       PRES   REMARKS
IRONWOOD       SUNNY     64  57  77 SW7       30.02S
MANITOWISH WTR NOT AVBL
ARBOR VITAE    NOT AVBL
EAGLE RIVER    NOT AVBL
LAND O LAKES   NOT AVBL
RHINELANDER    CLOUDY    63  58  83 VRB5      30.08R
PHILLIPS       MOSUNNY   62  57  83 CALM      30.07R
ANTIGO         NOT AVBL
TOMAHAWK       NOT AVBL
MERRILL        CLOUDY    62  59  90 SE5       30.07S
$$

WIZ013-073-291600-
NORTHEAST WISCONSIN

CITY           SKY/WX    TMP DP  RH WIND       PRES   REMARKS
IRON MOUNTAIN  PTSUNNY   67  58  72 SW5       30.06R
MARINETTE      PTSUNNY   64  57  77 S6        30.06S
$$

WIZ017-030-035>037-045-291600-
CENTRAL WISCONSIN

CITY           SKY/WX    TMP DP  RH WIND       PRES   REMARKS
MEDFORD        NOT AVBL
WAUSAU         CLOUDY    62  59  90 S5        30.05R
MOSINEE        CLOUDY    61  61 100 SE5       30.08R
MARSHFIELD     CLOUDY    63  58  83 SE7       30.06S
WISC RAPIDS    NOT AVBL
STEVENS POINT  NOT AVBL
WAUPACA        NOT AVBL
SHAWANO        NOT AVBL
CLINTONVILLE   CLOUDY    61  59  94 SE6       30.06F FOG
WAUTOMA        NOT AVBL
$$

WIZ038-039-048-051-291600-
FOX VALLEY

CITY           SKY/WX    TMP DP  RH WIND       PRES   REMARKS
NWS GREEN BAY  CLOUDY    62  59  90 E6        30.08S
APPLETON       CLOUDY    61  61 100 VRB6      30.05F
OSHKOSH        CLOUDY    62  59  90 E7        30.06R
FOND DU LAC    CLOUDY    63  61  93 E7        30.06R
$$

WIZ022-050-052-291600-
EAST CENTRAL WISCONSIN

CITY           SKY/WX    TMP DP  RH WIND       PRES   REMARKS
EPHRAIM        CLOUDY    62  60  90 S5        30.07F
STURGEON BAY   CLOUDY    59  55  88 S8        30.11S
MANITOWOC      NOT AVBL
SHEBOYGAN      CLOUDY    63  61  93 SE6       30.06F
$$

LMZ563-521-522-541>543-291600-
LAKESHORE

STATION/POSITION TIME  TEMP    WIND        PRES    VSBY  WAVE
                       AIR SEA DIR/SP/G                  HT/PER
                 (UTC) (F)     (DEG/KT/KT) (MB)    (MI)  (FT/S)
SHEBOYGAN LKSHOR 1400   57     100/  7/  9 1018.2F
ALGOMA MARINA    1414             CALM       N/A
NORTHPORT PIER   1400   60     150/  5/  7 1018.3F
N MID LAKE BUOY  1350   62 64  200/ 12/ 16 1018.5F         2/ 4
S GREEN BAY BUOY 1400   61 62  140/  8/  8 1019.5F
SISTER BAY LKSHO 1419   62     160/  4/  6   N/A
CHAMBERS ISLAND  1400   60     170/  1/  4 1018.6F
$$


USA.gov is the U.S. government's official web portal to all federal, state and local government web resources and services.